Hourly Data Report for September 25, 2017

All times are specified in Local Standard Time (LST). Add 1 hour to adjust for Daylight Saving Time where and when it is observed.

RESOLUTE BAY A
NUNAVUT

74°43'01.000" N
94°58'10.000" W
67.70 m
2403498
71924
YRB

Download Data

Hourly Data (September 2017)
Hourly Data Report for September 25, 2017
Temp Definition
°C
Dew Point Temp Definition
°C
Rel Hum Definition
%
Wind Dir Definition
10's deg

Wind Spd Definition
km/h
Visibility Definition
km
Stn Press Definition
kPa
Hmdx Definition


Wind Chill Definition


Weather Definition


TIME
00:00 Legend Double Dagger -4.8 -6.9 85 33 17 24.1 100.86   -11 Snow
01:00 Legend Double Dagger -5.0 -6.9 87 33 17 24.1 100.84   -11 Snow
02:00 Legend Double Dagger -5.2 -6.5 91 32 22 24.1 100.82   -12 Snow
03:00 Legend Double Dagger -5.7 -7.1 90 32 21 24.1 100.80   -13 Snow
04:00 Legend Double Dagger -6.2 -7.5 91 31 20 24.1 100.79   -13 Snow
05:00 Legend Double Dagger -6.6 -8.0 90 34 18 24.1 100.78   -13 Snow
06:00 Legend Double Dagger -6.9 -7.8 94 32 13 14.5 100.78   -12 Cloudy
07:00 Legend Double Dagger -7.1 -8.1 93 28 13 14.5 100.75   -13 LegendNANA
08:00 Legend Double Dagger -6.5 -7.4 94 30 14 24.1 100.70   -12 LegendNANA
09:00 Legend Double Dagger -5.9 -6.9 93 29 17 24.1 100.69   -12 Cloudy
10:00 Legend Double Dagger -5.5 -6.5 93 30 17 24.1 100.67   -12 LegendNANA
11:00 Legend Double Dagger -5.1 -6.0 94 29 19 24.1 100.66   -12 LegendNANA
12:00 Legend Double Dagger -5.2 -6.2 93 29 16 24.1 100.67   -11 Cloudy
13:00 Legend Double Dagger -5.3 -6.2 93 29 21 24.1 100.69   -12 LegendNANA
14:00 Legend Double Dagger -5.4 -6.3 93 28 17 24.1 100.70   -11 LegendNANA
15:00 Legend Double Dagger -5.6 -6.5 93 29 14 19.3 100.71   -11 Cloudy
16:00 Legend Double Dagger -5.6 -6.7 92 30 6 24.1 100.74   -8 LegendNANA
17:00 Legend Double Dagger -5.6 -6.7 92 25 6 24.1 100.73   -8 LegendNANA
18:00 Legend Double Dagger -5.7 -6.7 93 22 6 24.1 100.72   -9 Cloudy
19:00 Legend Double Dagger -5.8 -6.7 93 21 9 24.1 100.71   -10 LegendNANA
20:00 Legend Double Dagger -6.5 -7.4 93 26 12 24.1 100.70   -12 Snow
21:00 Legend Double Dagger -6.7 -7.7 93 22 4 24.1 100.69   -9 Snow
22:00 Legend Double Dagger -7.2 -8.2 92 17 6 0.8 100.68   -10 Freezing Fog
23:00 Legend Double Dagger -6.8 -7.8 93 36 1 0.6 100.66   -7 Freezing Fog

Notes on Data Quality.

Legend

  • E = Estimated
  • M = Missing
  • NA = Not Available
  • ‡ = Partner data that is not subject to review by the National Climate Archives
Date modified: